Location: Cran-Gévrier
(45.9039°N, 6.1012°E)
Time: 19:06:23
(UTC+00:00)

BlueWalker 3 - Visible Passes

Search period start: 29 May 2023 00:00
Search period end: 08 June 2023 00:00
Orbit: 495 x 512 km, 53.2° (Epoch: 29 May)

Date Brightness Start Highest point End Pass type
(mag) Time Alt. Az. Time Alt. Az. Time Alt. Az.
29 May 3.7 01:05:18 10° NW 01:08:55 35° NNE 01:12:32 10° E visible
29 May 1.9 02:43:48 10° WNW 02:47:41 70° SW 02:51:35 10° SE visible
29 May 2.7 19:48:29 10° SSW 19:51:50 29° SE 19:55:13 10° ENE visible
29 May 2.6 21:26:25 10° WSW 21:30:12 56° NNW 21:34:02 10° NE visible
29 May 4.1 23:05:56 10° WNW 23:09:18 28° N 23:12:42 10° NE visible
30 May 3.6 00:44:58 10° NW 00:48:35 35° NNE 00:52:12 10° E visible
30 May 1.9 02:23:28 10° WNW 02:27:21 69° SW 02:31:14 10° SE visible
30 May 2.7 21:06:05 10° WSW 21:09:51 55° NNW 21:13:41 10° NE visible
30 May 4.1 22:45:37 10° WNW 22:48:59 27° N 22:52:22 10° NE visible
31 May 3.6 00:24:38 10° NW 00:28:15 36° NNE 00:31:52 10° E visible
31 May 1.8 02:03:08 10° WNW 02:07:00 67° SW 02:10:53 10° SE visible
31 May 2.8 20:45:45 10° WSW 20:49:32 54° NNW 20:53:20 10° NE visible
31 May 4.1 22:25:17 10° WNW 22:28:39 27° N 22:32:02 10° NE visible
01 Jun 3.5 00:04:17 10° NW 00:07:54 36° NNE 00:11:33 10° E visible
01 Jun 1.8 01:42:47 10° WNW 01:46:39 65° SW 01:50:31 10° SE visible
01 Jun 2.8 20:25:25 10° WSW 20:29:10 53° NNW 20:32:58 10° NE visible
01 Jun 4.1 22:04:57 10° WNW 22:08:18 27° N 22:11:40 10° NE visible
01 Jun 3.5 23:43:56 10° NW 23:47:34 36° NNE 23:51:12 10° E visible
02 Jun 1.8 01:22:26 10° WNW 01:26:18 63° SW 01:30:09 10° SE visible
02 Jun 3.9 03:03:19 10° WSW 03:04:10 11° SW 03:04:59 10° SW visible
02 Jun 2.9 20:05:03 10° WSW 20:08:49 52° NNW 20:12:37 10° NE visible
02 Jun 4.1 21:44:36 10° WNW 21:47:57 27° N 21:51:19 10° ENE visible
02 Jun 3.4 23:23:34 10° NW 23:27:12 37° NNE 23:30:51 10° E visible
03 Jun 1.9 01:02:05 10° WNW 01:05:55 61° SW 01:07:07 39° SSE visible
03 Jun 4.1 21:24:15 10° WNW 21:27:36 27° N 21:30:58 10° ENE visible
03 Jun 3.4 23:03:12 10° NW 23:06:51 37° NNE 23:10:29 10° E visible
04 Jun 1.9 00:41:43 10° WNW 00:45:18 58° WSW 00:45:18 58° WSW visible
04 Jun 4.1 21:03:53 10° WNW 21:07:14 27° N 21:10:35 10° ENE visible
04 Jun 3.3 22:42:49 10° NW 22:46:28 38° NNE 22:49:47 12° E visible
05 Jun 2.4 00:21:20 10° WNW 00:24:24 47° W 00:24:24 47° W visible
05 Jun 4.1 20:43:31 10° WNW 20:46:51 27° N 20:50:12 10° ENE visible
05 Jun 3.3 22:22:26 10° NW 22:26:06 38° NNE 22:29:12 13° E visible
06 Jun 2.6 00:00:58 10° WNW 00:03:50 43° W 00:03:50 43° W visible
06 Jun 4.1 20:23:08 10° WNW 20:26:28 27° N 20:29:49 10° ENE visible
06 Jun 3.2 22:02:03 10° NW 22:05:42 39° NNE 22:08:50 13° E visible
06 Jun 2.6 23:40:34 10° WNW 23:43:29 43° W 23:43:29 43° W visible
07 Jun 4.0 20:02:45 10° WNW 20:06:05 27° N 20:09:25 10° ENE visible
07 Jun 3.2 21:41:39 10° NW 21:45:19 39° NNE 21:48:35 12° E visible
07 Jun 2.5 23:20:11 10° WNW 23:23:14 45° W 23:23:14 45° W visible
